sat.trackr.live / text

‹ back to catalog

STARLINK-5593

NORAD 55763 · 2023-028Y

PAYLOAD ACTIVE UNKNOWN

§ Identity

Operator
Country
US
Launch date
2023-03-03
Launch site
AFWTR
Launch vehicle
Mass (kg)
RCS (m²)

Purposes: comms

External: N2YO · Heavens-Above · Gunter

§ Orbital elements

Epoch: 2026-05-25T04:38:10.122144Z

Period
96.11 min
Inclination
70.0003°
Eccentricity
0.0002807
Mean motion
14.98330903 rev/d
Perigee alt
570.1 km
Apogee alt
574.0 km
Semi-major
6,950.2 km
B*
4.8571e-6
RAAN
51.4061°
Arg perigee
267.6429°
Mean anomaly
92.4409°
Rev number
17,750

§ Raw data

STARLINK-55931 55763U 23028Y   26145.19317271 -.00000035  00000+0  48571-5 0  99982 55763  70.0003  51.4061 0002807 267.6429  92.4409 14.98330903177506

JSON: /api/v1/satellites/55763 · /tle

For live sub-satellite position, see the globe view (requires WebGL).

§ Visibility from observer

Set your observer location to see the next 7 days of passes ≥ 10°. The values pass through the URL so the page stays shareable.

No JS? Fill the form by hand. The geolocation button needs JavaScript.